Regional Weather Roundup
Issued by NWS

Home | Current Version | Previous Version | Text Only | Print | Product List | Glossary Off
Versions: 1 2 3 4 5 6 7 8 9 10 11 12 13 14 15 16 17 18 19 20 21 22 23 24 25 26 27 28 29 30 31 32 33 34 35 36 37 38 39 40 41 42 43 44 45 46 47 48 49 50

000
ASUS43 KLSX 310059
RWRMO

WEATHER SUMMARY FOR MISSOURI
NATIONAL WEATHER SERVICE SPRINGFIELD MO
700 PM CST FRI JAN 30 2015

NOTE: "FAIR" INDICATES FEW OR NO CLOUDS BELOW 12,000 FEET WITH NO
       SIGNIFICANT WEATHER AND/OR OBSTRUCTIONS TO VISIBILITY.
       CURRENT SKY AND/OR WEATHER CONDITIONS ARE NOT AVAILABLE FOR
       CHILLICOTHE AND FARMINGTON.

MOZ001>031-035>038-043-044-053-054-310200-
...NORTHERN AND WESTERN MISSOURI...

CITY           SKY/WX    TMP DP  RH WIND       PRES   REMARKS
KANSAS CTY INT CLOUDY    31  20  63 S6        30.37F WCI  25
KANSAS C DTWN  CLOUDY    37  19  48 CALM      30.39S
LEE`S SUMMIT   CLOUDY    37  18  46 S9        30.38F
ST JOSEPH      CLOUDY    31  19  61 S5        30.38F WCI  26
CHILLICOTHE      N/A     29  18  63 CALM      30.42F
KIRKSVILLE     CLEAR     26  18  71 S6        30.41F WCI  19

$$
MOZ066>068-077>081-088>096-101>105-310200-
...SOUTHWEST MISSOURI...

CITY           SKY/WX    TMP DP  RH WIND       PRES   REMARKS
SPRINGFIELD    CLOUDY    37  19  48 CALM      30.40R
JOPLIN         CLOUDY    42  23  46 CALM      30.41S

$$
MOZ032>034-039>042-045>050-055>058-069>072-310200-
...CENTRAL MISSOURI...

CITY           SKY/WX    TMP DP  RH WIND       PRES   REMARKS
COLUMBIA       MOCLDY    33  17  51 CALM      30.42S
JEFFERSON CITY CLOUDY    31  18  58 CALM      30.44S
ROLLA          CLOUDY    28  20  71 CALM      30.40S
SEDALIA        CLOUDY    34  20  56 CALM      30.41F
OSAGE BEACH    CLOUDY    36  16  44 CALM      30.41F

$$
MOZ051-052-059>065-310200-
...EAST CENTRAL MISSOURI...

CITY           SKY/WX    TMP DP  RH WIND       PRES   REMARKS
ST LOUIS INTL  MOCLDY    34  19  54 CALM      30.46S
SPIRIT OF STL  CLEAR     28  18  66 CALM      30.45S
ST CHARLES     CLEAR     29  20  69 CALM      30.46F

$$
MOZ072>076-082>087-097>100-106>115-310200-
...SOUTH CENTRAL AND SOUTHEAST MISSOURI...

CITY           SKY/WX    TMP DP  RH WIND       PRES   REMARKS
CAPE GIRARDEAU PTCLDY    33  28  81 CALM      30.46S
FARMINGTON     PTCLDY    34  18  51 E5        30.46S WCI  30
POPLAR BLUFF   MOCLDY    36  26  67 CALM      30.45S
WEST PLAINS    MOCLDY    35  16  45 CALM      30.41S

$$


USA.gov is the U.S. government's official web portal to all federal, state and local government web resources and services.